Location: Dompnac
(44.5644°N, 4.1026°E)
Time: 13:13:03
(UTC+00:00)

COSMOS 2406 - Visible Passes

Search period start: 16 January 2021 00:00
Search period end: 26 January 2021 00:00
Orbit: 840 x 866 km, 71.0° (Epoch: 16 January)

Date Brightness Start Highest point End Pass type
(mag) Time Alt. Az. Time Alt. Az. Time Alt. Az.
16 Jan 5.3 18:15:21 10° NNE 18:15:48 11° NNE 18:15:48 11° NNE visible
16 Jan 5.6 19:57:19 10° NNW 19:57:52 13° NNW 19:57:52 13° NNW visible
17 Jan 5.2 18:03:48 10° NNE 18:04:54 11° NNE 18:04:54 11° NNE visible
17 Jan 5.4 19:45:50 10° NNW 19:46:59 16° NNW 19:46:59 16° NNW visible
18 Jan 5.1 17:52:16 10° NNE 17:54:05 12° NE 17:54:05 12° NE visible
18 Jan 5.1 19:34:19 10° NNW 19:36:10 20° N 19:36:10 20° N visible
19 Jan 5.0 17:40:44 10° NNE 17:42:44 12° NE 17:43:20 12° NE visible
19 Jan 4.7 19:22:49 10° NNW 19:25:26 26° N 19:25:26 26° N visible
20 Jan 5.0 17:29:12 10° NNE 17:31:16 12° NE 17:32:43 11° NE visible
20 Jan 4.2 19:11:20 10° NNW 19:14:49 34° N 19:14:49 34° N visible
20 Jan 6.0 20:56:19 10° NW 20:56:55 12° NW 20:56:55 12° NW visible
21 Jan 5.0 17:17:40 10° NNE 17:19:47 12° NE 17:21:55 10° ENE visible
21 Jan 3.7 18:59:50 10° NNW 19:04:20 45° NNE 19:04:20 45° NNE visible
21 Jan 5.7 20:44:51 10° NW 20:46:27 17° WNW 20:46:27 17° WNW visible
22 Jan 3.3 18:48:21 10° NNW 18:54:01 54° ENE 18:54:02 54° ENE visible
22 Jan 5.4 20:33:22 10° NW 20:36:10 21° WNW 20:36:10 21° WNW visible
23 Jan 3.3 18:36:50 10° NNW 18:42:32 55° ENE 18:44:00 43° ESE visible
23 Jan 5.2 20:21:54 10° NW 20:26:10 24° W 20:26:10 24° W visible
24 Jan 3.3 18:25:21 10° NNW 18:31:02 55° ENE 18:34:23 24° SE visible
24 Jan 5.2 20:10:25 10° NW 20:14:57 24° WSW 20:16:35 21° SW visible
25 Jan 3.3 18:13:51 10° NNW 18:19:33 56° ENE 18:25:12 10° SE visible
25 Jan 5.3 19:58:57 10° NW 20:03:26 24° W 20:07:51 10° SSW visible
